Retour au catalogue

STARLINK-11339

ActifCommunicationsVLEO
NORAD 61691·PAYLOAD·🇺🇸 United States

Lancé Oct 30, 2024 depuis Vandenberg Space Force Base

Loading…

Prochains Passages (prochaines 24 heures)

TLE

FraisSource: CelesTrak SupGP

Époque: Sep 14, 2026, 20:33 UTC

1 61691C 24195E   26257.85673611  .00027680  00000+0  22790-3 0  2575
2 61691  53.1571 173.8018 0001082  88.2835 268.3347 15.69706722    19

Suivez STARLINK-11339 en temps réel avec AllMySat

Download on the App Store